This is the latest recevied weather packets stored in our database for station/object KC2GYU. If no packets are shown the sender has not sent any weather packets the latest 10 day(s).
| Time | Temp. | Humidity | Pressure | Rain* | Wind** | Luminosity | Snow |
|---|---|---|---|---|---|---|---|
| 1777526839 | 9.44° C | 99% | 1008.7 hPa | 0 mm | - | 0 W/m² | - |
| 1777526534 | 9.44° C | 99% | 1008.8 hPa | 0 mm | - | 0 W/m² | - |
| 1777526228 | 9.44° C | 99% | 1009 hPa | 0 mm | - | 0 W/m² | - |
| 1777525924 | 10° C | 99% | 1009 hPa | 0 mm | - | 0 W/m² | - |
| 1777525622 | 10° C | 99% | 1009.1 hPa | 1.27 mm | - | 0 W/m² | - |
| 1777525319 | 10° C | 99% | 1009.4 hPa | 1.27 mm | - | 0 W/m² | - |
| 1777525014 | 9.44° C | 99% | 1009.5 hPa | 0 mm | - | 0 W/m² | - |
| 1777524712 | 9.44° C | 98% | 1009.4 hPa | 0 mm | - | 0 W/m² | - |
| 1777524410 | 9.44° C | 98% | 1009.4 hPa | 1.78 mm | - | 0 W/m² | - |
| 1777524105 | 9.44° C | 98% | 1009.5 hPa | 4.83 mm | - | 0 W/m² | - |
| 1777523802 | 9.44° C | 98% | 1010.2 hPa | 3.05 mm | - | 0 W/m² | - |
| 1777523499 | 9.44° C | 98% | 1010.2 hPa | 0 mm | - | 0 W/m² | - |
| 1777523195 | 9.44° C | 98% | 1009.9 hPa | 1.78 mm | - | 0 W/m² | - |
| 1777522891 | 9.44° C | 98% | 1009.5 hPa | 3.05 mm | - | 0 W/m² | - |
| 1777522589 | 10° C | 98% | 1009.5 hPa | 4.83 mm | - | 0 W/m² | - |
| 1777522286 | 10° C | 98% | 1009.6 hPa | 3.05 mm | - | 0 W/m² | - |
| 1777521982 | 10° C | 97% | 1009.5 hPa | 1.27 mm | - | 0 W/m² | - |
| 1777521679 | 10° C | 97% | 1010 hPa | 0 mm | - | 0 W/m² | - |
| 1777521376 | 10° C | 97% | 1010.2 hPa | 3.05 mm | - | 0 W/m² | - |
| 1777521073 | 10° C | 97% | 1010 hPa | 12.7 mm | - | 0 W/m² | - |
| 1777520770 | 10° C | 97% | 1009.4 hPa | 19.81 mm | - | 0 W/m² | - |
| 1777520467 | 10° C | 96% | 1009.5 hPa | 26.92 mm | - | 0 W/m² | - |
| 1777520164 | 10.56° C | 96% | 1011.1 hPa | 10.67 mm | - | 0 W/m² | - |
| 1777519862 | 10.56° C | 96% | 1012.5 hPa | 0 mm | - | 0 W/m² | - |
| 1777519559 | 10.56° C | 96% | 1010.5 hPa | 0 mm | - | 0 W/m² | - |
* Rain latest hour (hover to see other rain measurements)
** Current wind speed in m/s (hover to see current wind gust speed)